Погода в Березовке

Россия / Тамбовская область     51°59′59″N   42°03′36″E
темп.,
°C
ветер,
м/с
пор.,
м/с
влажн.,
%
обл.,
%
осадки,
мм/ч
давл.,
гПа
погр.,
м
22 апреля, чт
чт2200:00+6ю47935 0.0 1017131
03:00+5ююз410915 0.0 1018178
06:00+5юз38935 0.0 1019179
09:00+10юз46755 0.0 1020639
12:00+13зюз565764 0.3 10211662
15:00+13зюз465985 0.4 1021874
18:00+13зюз226047 0.0 102151
21:00+11вюв226382 0.0 102216
23 апреля, пт
пт2300:00+10ююв336994 0.0 102250
03:00+9ю337995 0.0 102142
06:00+9ююв3380100 0.0 102166
09:00+13ююв466692 0.1 1021447
12:00+15ю4557100 1.2 10201417
15:00+14ю4562100 3.9 10191200
18:00+12юв577535 1.4 1018452
21:00+9ююв4109013 1.5 1017260
24 апреля, сб
сб2400:00+8ююв410945 0.0 1015259
03:00+7ююв4109584 0.0 1013240
06:00+8ю4794100 0.4 1012252
09:00+10юз4886100 1.0 1011788
12:00+6з6990100 1.8 1012668
15:00+9з5765100 1.9 10111427
18:00+9зюз5768100 0.7 1011780
21:00+6з4887100 1.6 1012438
25 апреля, вс
вс2500:00+4зюз49892 0.1 1012211
03:00+2зюз37884 0.1 1013138
06:00+3юз479179 0.0 1014197
09:00+7з567348 0.0 1015931
12:00+6з587712 0.5 1017877
15:00+9з7946100 0.5 10172289
18:00+8з585055 0.1 1017576
21:00+4зюз346322 0.1 101959
26 апреля, пн
пн2600:00+3ююз33705 0.0 101933
03:00+2ююз377639 0.0 1019114
06:00+3ююз3777100 0.0 1019152
09:00+8ююз595587 0.0 1018714
12:00+11ююз7944100 0.0 10162040
15:00+12ююз6846100 0.0 10142094
18:00+11ю595496 0.0 1013478
21:00+7зюз2477100 0.1 1012131